Regional Weather Roundup
Issued by NWS

Home | Current Version | Previous Version | Text Only | Print | Product List | Glossary On
Versions: 1 2 3 4 5 6 7 8 9 10 11 12 13 14 15 16 17 18 19 20 21 22 23 24 25 26 27 28 29 30 31 32 33 34 35 36 37 38 39 40 41 42 43 44 45 46 47 48 49 50
815
ASUS43 KDTX 180501
RWRMI
MICHIGAN HOURLY REGIONAL WEATHER ROUNDUP
NATIONAL WEATHER SERVICE DETROIT/PONTIAC MI
100 AM EDT WED OCT 18 2017

NOTE: "FAIR" INDICATES FEW OR NO CLOUDS BELOW 12,000 FEET WITH NO
SIGNIFICANT WEATHER AND/OR OBSTRUCTION TO VISIBILITY.

MIZ047>049-052>055-059>063-066>070-074>076-081>083-180600-
SOUTHEAST LOWER MICHIGAN

CITY           SKY/WX    TMP DP  RH WIND       PRES   REMARKS
ADRIAN         CLEAR     48  40  73 SW7       30.21F
ALMA           CLEAR     52  40  64 SW9       30.14S
ANN ARBOR      CLEAR     48  40  73 S3        30.20S
BAD AXE        CLEAR     48  41  76 SW3       30.14S
CARO           CLEAR     47  41  79 SW3       30.14F
DETROIT CITY   CLEAR     55  41  59 SW10      30.20S
DETROIT        PTCLDY    51  42  71 S8        30.21S
FLINT          CLEAR     54  41  61 SW9       30.17R
GROSSE ILE     CLEAR     54  42  62 SW5       30.21S
HILLSDALE      CLEAR     52  37  58 SW8       30.21S
HOWELL         CLEAR     52  41  66 S3        30.18S

CITY           SKY/WX    TMP DP  RH WIND       PRES   REMARKS
JACKSON        CLEAR     54  40  59 SW12      30.19S
LAMBERTVILLE   CLEAR     55  40  57 SW7       30.21F
LANSING        CLEAR     54  40  59 SW10      30.18S
LAPEER         FAIR      52  41  66 SW6       30.17S
MASON          CLEAR     57  40  53 SW6       30.18S
MONROE         PTCLDY    54  39  58 SW5       30.20S
MT. CLEMENS    CLEAR     55  42  63 SW7       30.17S
PONTIAC        CLEAR     54  42  64 SW6       30.18S
PORT HOPE        N/A     57  43  59 SW6       30.10F
PORT HURON     CLEAR     54  41  62 CALM      30.19R
TRI CITIES     CLEAR     54  44  69 SW7       30.13F
MIDLAND        FAIR      52  42  69 CALM      30.12S
TROY           CLEAR     55  40  59 SW6       30.20S
SAGINAW HB     CLEAR     52  43  71 S9        30.13S
$$
MIZ043>046-050>051-056>058-064>065-071>073-077>080-180600-
SOUTHWEST LOWER MICHIGAN

CITY           SKY/WX    TMP DP  RH WIND       PRES   REMARKS
BATTLE CREEK   CLEAR     53  41  63 SW8       30.19S
BENTON HARBOR  CLEAR     54  39  57 S6        30.18S
BIG RAPIDS     CLEAR     57  46  66 SW10G16   30.11S
COLDWATER      CLEAR     51  39  63 SW6       30.21S
FREMONT        FAIR      54  50  88 S5        30.12S
HOLLAND        CLEAR     59  45  59 SW12      30.16S
GRAND RAPIDS   CLEAR     55  42  61 SW9       30.16S
IONIA          FAIR      55  40  57 SW7       30.15S
KALAMAZOO      CLEAR     52  40  63 S10       30.19F
LUDINGTON      CLEAR     60  50  69 SW12G22   30.08S
MARSHALL       CLEAR     54  40  57 SW9       30.19S
MOUNT PLEASANT CLEAR     56  42  60 SW5       30.11F
MUSKEGON       CLEAR     61  51  70 SW15      30.14S
SOUTH HAVEN    CLEAR     55  40  55 S6        30.17F
$$
MIZ016>042-180600-
NORTHERN LOWER MICHIGAN

CITY           SKY/WX    TMP DP  RH WIND       PRES   REMARKS
ALPENA         CLEAR     42  40  92 CALM      30.08F
BEAVER ISLAND  CLEAR     56  50  82 S6        30.02F
BELLAIRE       CLEAR     41  40  95 CALM      30.06S
CADILLAC       CLEAR     50  44  81 SW6       30.09S
CHARLEVOIX     CLEAR     51  47  84 SE6       30.07S
FRANKFORT      CLEAR     61  55  79 S9        30.05S
GAYLORD        CLEAR     47  43  86 S5        30.07F
GRAYLING       CLOUDY    38  36  91 CALM      30.09S
HARBOR SPRINGS CLEAR     46  44  94 CALM      30.04F
HOUGHTON LAKE  CLEAR     51  45  79 S5        30.10S
OSCODA         CLEAR     49  44  81 SW5       30.10S
PELLSTON       CLEAR     39  38  96 CALM      30.05F
ROGERS CITY    CLEAR     50  45  82 SW5       30.07S
TRAVERSE CITY  CLEAR     57  48  72 VRB5      30.04F
$$
MIZ007>008-015-180600-
EASTERN UPPER MICHIGAN

CITY           SKY/WX    TMP DP  RH WIND       PRES   REMARKS
KINROSS        CLEAR     50  49  96 S5        30.04S
MACKINAC ISLAN CLEAR     53  47  81 S9        30.04S
NEWBERRY       PTCLDY    52  51  97 S8        30.00F
S. S. MARIE    CLEAR     45  43  93 E5        30.04S
$$
MIZ004>006-011>014-085-180600-
CENTRAL UPPER MICHIGAN

CITY           SKY/WX    TMP DP  RH WIND       PRES   REMARKS
MANISTIQUE     CLEAR     56  50  81 S5        30.00S
ESCANABA       PTCLDY    54  52  93 SW7       29.98F
MENOMINEE      CLEAR     55  49  80 SW7       30.00S
SAWYER-GWINN   CLEAR     48  45  87 S8        29.96F
$$
MIZ001>003-009>011-084-180600-
WESTERN UPPER MICHIGAN

CITY           SKY/WX    TMP DP  RH WIND       PRES   REMARKS
IRON MOUNTAIN  CLEAR     49  43  80 SE3       29.96F
HOUGHTON       CLEAR     52  42  69 S7        29.88F
COPPER HARBOR    N/A     54  46  74 W8        29.88F
IRONWOOD       CLEAR     56  44  64 S10G17    29.89F
$$

ABBREVIATIONS USED IN REMARKS
   TC - TEMPERATURE IN CELSIUS
  WCI - WIND CHILL INDEX
   HX - HEAT INDEX
  VSB - VISIBILITY





USA.gov is the U.S. government's official web portal to all federal, state and local government web resources and services.